GW0796 Weather Reports


Display with metric or nautical units.
time (UTC)temp
F
wind
direction
speed
MPH
gust
MPH
rain 1hr
in
rain 24hr
in
rain mn
in
humidity
%
barometer
mb
20260906191608 64 218 7.0 16.0 3.17 3.19 3.19 95 1019.8
20260906190106 64 103 10.0 21.0 2.34 2.34 2.34 94 1018.5
20260906184604 67 107 11.0 20.0 1.02 1.02 1.02 93 1018.5
20260906183107 71 154 7.0 17.0 0.43 0.43 0.43 90 1018.3
20260906181613 76 125 7.0 14.0 0.02 0.02 0.02 87 1017.6
20260906180110 78 99 1.0 8.0 0.00 0.00 0.00 87 1017.3
20260906174609 80 88 1.0 4.0 0.00 0.00 0.00 85 1017.7
20260906173113 80 162 2.0 6.0 0.00 0.00 0.00 84 1017.8
20260906171609 80 189 1.0 6.0 0.00 0.00 0.00 85 1017.6
20260906170111 79 128 3.0 7.0 0.00 0.00 0.00 88 1017.3
20260906164616 77 0 3.0 6.0 0.00 0.00 0.00 90 1017.6
20260906163110 77 171 4.0 8.0 0.00 0.00 0.00 90 1017.3
20260906161605 77 125 1.0 5.0 0.00 0.00 0.00 91 1016.9
20260906160105 77 124 1.0 5.0 0.00 0.00 0.00 92 1016.9
20260906154609 76 204 1.0 8.0 0.00 0.00 0.00 92 1017.1
20260906153102 76 189 3.0 8.0 0.00 0.00 0.00 91 1016.9
20260906151607 76 128 1.0 5.0 0.00 0.00 0.00 91 1017.1
20260906150107 76 138 1.0 5.0 0.00 0.00 0.00 92 1017.1
20260906144604 76 142 1.0 3.0 0.00 0.00 0.00 92 1017.0
20260906143114 76 134 1.0 4.0 0.00 0.00 0.00 92 1016.7
20260906141603 76 133 1.0 6.0 0.00 0.00 0.00 93 1016.7
20260906140106 75 118 2.0 7.0 0.00 0.00 0.00 93 1016.6
20260906134604 75 84 1.0 5.0 0.00 0.00 0.00 93 1016.7
20260906133106 75 169 0.0 3.0 0.00 0.00 0.00 94 1016.8
20260906131609 74 0 0.0 3.0 0.00 0.00 0.00 94 1016.9
20260906130104 74 115 0.0 4.0 0.00 0.00 0.00 94 1016.9
20260906124612 74 0 1.0 6.0 0.00 0.08 0.00 94 1016.8
20260906123105 74 106 0.0 5.0 0.00 0.08 0.00 94 1016.6
20260906121606 74 0 0.0 6.0 0.00 0.08 0.00 94 1016.3
20260906120115 73 119 0.0 5.0 0.00 0.08 0.00 94 1016.0
20260906114610 73 146 1.0 6.0 0.00 0.20 0.00 94 1015.9
20260906113104 73 122 0.0 5.0 0.00 0.20 0.00 94 1016.0
20260906111621 73 116 1.0 4.0 0.00 0.20 0.00 94 1015.9
20260906110104 73 121 1.0 7.0 0.00 0.20 0.00 94 1015.8
20260906104607 73 122 1.0 5.0 0.00 0.22 0.00 94 1015.9
20260906103105 73 110 1.0 4.0 0.00 0.22 0.00 94 1015.7
20260906101604 72 101 0.0 5.0 0.00 0.22 0.00 94 1015.9
20260906100108 72 98 1.0 5.0 0.00 0.22 0.00 94 1015.9
20260906094605 72 82 1.0 4.0 0.00 0.22 0.00 94 1015.9
20260906093105 72 97 0.0 3.0 0.00 0.22 0.00 94 1016.0
20260906091615 72 0 0.0 2.0 0.00 0.22 0.00 94 1016.1
20260906090124 72 0 0.0 1.0 0.00 0.22 0.00 93 1016.2
20260906084604 72 0 0.0 4.0 0.00 0.22 0.00 93 1016.0
20260906083104 72 125 0.0 4.0 0.00 0.22 0.00 93 1015.5
20260906081605 72 102 1.0 5.0 0.00 0.22 0.00 93 1015.3
20260906080111 73 0 0.0 5.0 0.00 0.22 0.00 93 1015.2
20260906074610 73 141 1.0 5.0 0.00 0.22 0.00 93 1015.3
20260906073105 73 128 1.0 5.0 0.00 0.22 0.00 93 1015.4
20260906071608 73 0 0.0 7.0 0.00 0.22 0.00 93 1015.7
20260906070110 73 84 1.0 5.0 0.00 0.22 0.00 93 1015.7
20260906064603 72 105 0.0 6.0 0.00 0.22 0.00 93 1015.8
20260906063103 72 0 1.0 7.0 0.00 0.22 0.00 93 1015.9
20260906061609 71 0 0.0 1.0 0.00 0.22 0.00 92 1016.1
20260906060111 71 0 0.0 2.0 0.00 0.22 0.00 92 1016.0
20260906054609 71 86 0.0 3.0 0.00 0.22 0.00 92 1016.0
20260906053105 71 0 0.0 1.0 0.00 0.22 0.00 92 1016.1
20260906051609 71 0 0.0 1.0 0.00 0.22 0.00 91 1016.2
20260906050108 71 113 0.0 2.0 0.00 0.22 0.00 91 1016.1
20260906044605 71 117 0.0 2.0 0.00 0.22 0.22 91 1016.0
20260906043106 71 0 0.0 4.0 0.00 0.22 0.22 91 1016.0
20260906041619 71 0 0.0 1.0 0.00 0.22 0.22 90 1016.1
20260906040120 71 0 0.0 3.0 0.00 0.22 0.22 90 1016.2
20260906034606 72 0 0.0 3.0 0.00 0.22 0.22 89 1016.1
20260906033108 72 0 0.0 4.0 0.00 0.22 0.22 89 1015.9
20260906031611 72 105 0.0 2.0 0.00 0.22 0.22 88 1016.0
20260906030120 72 129 0.0 2.0 0.00 0.22 0.22 87 1015.9
20260906024630 73 96 0.0 5.0 0.00 0.22 0.22 85 1015.8
20260906023105 74 129 1.0 4.0 0.00 0.22 0.22 84 1015.7
20260906021612 74 113 1.0 7.0 0.00 0.22 0.22 83 1015.7
20260906020112 75 136 1.0 7.0 0.00 0.22 0.22 82 1015.4
20260906014612 75 0 1.0 4.0 0.00 0.22 0.22 81 1015.4
20260906013104 75 0 1.0 9.0 0.00 0.22 0.22 78 1015.4
20260906011602 76 110 1.0 6.0 0.00 0.22 0.22 76 1015.4
20260906010120 77 103 1.0 6.0 0.00 0.22 0.22 74 1015.3
20260906004610 79 0 0.0 4.0 0.00 0.22 0.22 71 1015.3
20260906003121 81 112 0.0 8.0 0.00 0.22 0.22 68 1015.2
20260906001615 82 106 1.0 8.0 0.00 0.22 0.22 65 1015.0
20260906000109 83 120 3.0 11.0 0.00 0.22 0.22 62 1014.7
20260905234609 85 148 2.0 8.0 0.00 0.22 0.22 59 1014.5
20260905233105 86 107 2.0 10.0 0.00 0.22 0.22 57 1014.5
20260905231605 86 113 4.0 9.0 0.00 0.22 0.22 55 1014.2
20260905230111 89 160 2.0 9.0 0.00 0.22 0.22 51 1014.3
20260905224604 89 153 3.0 8.0 0.00 0.22 0.22 50 1014.1
20260905223106 89 137 2.0 6.0 0.00 0.22 0.22 52 1014.3
20260905221606 89 126 2.0 7.0 0.00 0.22 0.22 49 1014.3
20260905220109 88 151 3.0 11.0 0.00 0.22 0.22 49 1014.2
20260905214606 88 151 3.0 8.0 0.00 0.22 0.22 51 1014.2
20260905213107 88 190 3.0 10.0 0.00 0.22 0.22 50 1013.9
20260905211607 88 123 4.0 11.0 0.00 0.22 0.22 50 1014.0
20260905210108 87 122 4.0 10.0 0.00 0.22 0.22 50 1014.1
20260905204613 87 103 5.0 10.0 0.00 0.22 0.22 51 1013.9
20260905203103 87 140 4.0 11.0 0.00 0.22 0.22 52 1014.0
20260905201606 87 125 3.0 9.0 0.00 0.22 0.22 55 1014.0
20260905200109 86 122 4.0 9.0 0.00 0.22 0.22 54 1014.1
20260905194606 85 137 3.0 10.0 0.00 0.22 0.22 56 1014.1
20260905193111 84 138 1.0 8.0 0.00 0.22 0.22 59 1014.2